sat.trackr.live / text

‹ back to catalog

STARLINK-11362 [DTC]

NORAD 61535 · 2024-184D

PAYLOAD ACTIVE UNKNOWN

§ Identity

Operator
Country
US
Launch date
2024-10-15
Launch site
AFWTR
Launch vehicle
Mass (kg)
RCS (m²)

Purposes: comms

External: N2YO · Heavens-Above · Gunter

§ Orbital elements

Epoch: 2026-09-21T12:01:24.523392Z

Period
91.74 min
Inclination
53.1593°
Eccentricity
0.0000855
Mean motion
15.69704075 rev/d
Perigee alt
359.2 km
Apogee alt
360.3 km
Semi-major
6,737.9 km
B*
-8.5890e-7
RAAN
350.8433°
Arg perigee
67.1236°
Mean anomaly
292.9872°
Rev number
11,117

§ Raw data

STARLINK-11362 [DTC]1 61535U 24184D   26264.50097828 -.00000692  00000+0 -85890-6 0  99922 61535  53.1593 350.8433 0000855  67.1236 292.9872 15.69704075111171

JSON: /api/v1/satellites/61535 · /tle

For live sub-satellite position, see the globe view (requires WebGL).

§ Visibility from observer

Set your observer location to see the next 7 days of passes ≥ 10°. The values pass through the URL so the page stays shareable.

No JS? Fill the form by hand. The geolocation button needs JavaScript.